Weather History for Brenham, TX

Change the Weather History Date:

Tuesday, August 6, 2013

  Actual Average (KCLL) Record (KCLL)
Temperature  
Mean Temperature 92 °F 86 °F  
Max Temperature 104 °F 97 °F 105 °F (1913)
Min Temperature 80 °F 75 °F 69 °F (1939)
Degree Days  
Heating Degree Days 0 0  
Month to date heating degree days 0  
Since 1 June heating degree days 0  
Since 1 July heating degree days 0  
Cooling Degree Days 26 21  
Month to date cooling degree days 125  
Year to date cooling degree days 1840  
Since 1 June cooling degree days 1252  
Growing Degree Days 42 (Base 50)    
Moisture  
Dew Point 71 °F    
Average Humidity 57    
Maximum Humidity 88    
Minimum Humidity 27    
Precipitation  
Precipitation 0.00 in 0.07 in 2.45 in (1957)
Month to date precipitation 0.42  
Year to date precipitation 23.26  
Sea Level Pressure  
Sea Level Pressure 29.93 in    
Wind  
Wind Speed 9 mph (South)    
Max Wind Speed 18 mph    
Max Gust Speed 29 mph    
Visibility 10 miles    
Events      
T = Trace of Precipitation, MM = Missing Value Source: NWS Daily Summary

Daily Weather History Graph

Daily Weather History Graph

Search for Another Location

Airport:

Trip Planner

Search our weather history database for the weather conditions in past years. The results will help you decide how hot, cold, wet, or windy it might be!

Date:

Astronomy

Aug. 06, 2013 Rise Set
Actual Time 6:47 AM CDT 8:14 PM CDT
Civil Twilight 6:21 AM CDT 8:40 PM CDT
Nautical Twilight 5:50 AM CDT 9:11 PM CDT
Astronomical Twilight 5:18 AM CDT 9:43 PM CDT
Moon 6:35 AM CDT (8/6) 7:56 PM CDT (8/6)
Length of Visible Light 14h 18m
Length of Day
13h 27m
Waning Crescent, 0% of the Moon is Illuminated
Aug 6
Waning Crescent
Aug 6
New
Aug 14
First Quarter
Aug 20
Full
Aug 28
Last Quarter

Hourly Weather History & Observations

Time (CDT) Temp. Heat Index Dew Point Humidity Pressure Visibility Wind Dir Wind Speed Gust Speed Precip Events Conditions
12:15 AM 83.8 °F 91.4 °F 74.7 °F 74% 29.98 in 10.0 mi South 6.9 mph - N/A   Clear
12:35 AM 83.3 °F 90.8 °F 75.2 °F 76% 29.98 in 10.0 mi South 6.9 mph - N/A   Clear
12:55 AM 82.9 °F 90.2 °F 75.2 °F 77% 29.97 in 10.0 mi South 8.1 mph - N/A   Clear
1:15 AM 82.8 °F 90.1 °F 75.2 °F 78% 29.97 in 10.0 mi South 10.4 mph - N/A   Clear
1:35 AM 82.4 °F 89.2 °F 75.0 °F 78% 29.97 in 10.0 mi South 8.1 mph - N/A   Clear
1:55 AM 82.2 °F 89.1 °F 75.2 °F 79% 29.96 in 10.0 mi South 9.2 mph - N/A   Clear
2:15 AM 81.9 °F 88.7 °F 75.4 °F 81% 29.96 in 10.0 mi South 8.1 mph - N/A   Clear
2:35 AM 81.5 °F 88.0 °F 75.6 °F 82% 29.95 in 10.0 mi South 5.8 mph - N/A   Clear
2:55 AM 81.1 °F 87.6 °F 75.7 °F 84% 29.95 in 10.0 mi South 6.9 mph - N/A   Clear
3:15 AM 80.8 °F 86.9 °F 75.7 °F 85% 29.95 in 10.0 mi SSE 4.6 mph - N/A   Scattered Clouds
3:35 AM 80.6 °F 86.6 °F 76.1 °F 86% 29.95 in 10.0 mi SSE 4.6 mph - N/A   Mostly Cloudy
3:55 AM 80.6 °F 86.6 °F 76.1 °F 86% 29.95 in 10.0 mi South 3.5 mph - N/A   Overcast
4:15 AM 80.1 °F 85.5 °F 76.1 °F 88% 29.95 in 10.0 mi Calm Calm - N/A   Overcast
4:35 AM 80.1 °F 85.5 °F 76.1 °F 88% 29.95 in 10.0 mi South 4.6 mph - N/A   Overcast
4:55 AM 80.2 °F 85.8 °F 76.1 °F 87% 29.95 in 10.0 mi South 4.6 mph - N/A   Mostly Cloudy
5:15 AM 80.2 °F 85.8 °F 76.1 °F 87% 29.94 in 10.0 mi South 5.8 mph - N/A   Mostly Cloudy
5:35 AM 81.7 °F 89.0 °F 76.5 °F 84% 29.95 in 10.0 mi SSW 10.4 mph - N/A   Scattered Clouds
5:55 AM 81.5 °F 88.5 °F 76.3 °F 84% 29.95 in 10.0 mi SSW 9.2 mph - N/A   Mostly Cloudy
6:15 AM 81.5 °F 88.5 °F 76.3 °F 84% 29.95 in 10.0 mi South 11.5 mph - N/A   Mostly Cloudy
6:35 AM 81.7 °F 88.7 °F 76.1 °F 83% 29.95 in 10.0 mi SSW 8.1 mph - N/A   Overcast
6:55 AM 82.0 °F 89.4 °F 76.1 °F 82% 29.95 in 10.0 mi SSW 8.1 mph - N/A   Overcast
7:15 AM 81.9 °F 89.2 °F 76.1 °F 83% 29.96 in 10.0 mi SSW 6.9 mph - N/A   Mostly Cloudy
7:35 AM 81.9 °F 89.2 °F 76.1 °F 83% 29.97 in 10.0 mi South 6.9 mph - N/A   Mostly Cloudy
7:55 AM 82.4 °F 90.1 °F 76.1 °F 81% 29.97 in 10.0 mi SSW 4.6 mph - N/A   Mostly Cloudy
8:15 AM 82.9 °F 91.2 °F 76.1 °F 80% 29.98 in 10.0 mi SSW 8.1 mph - N/A   Mostly Cloudy
8:35 AM 83.5 °F 91.6 °F 75.6 °F 77% 29.98 in 10.0 mi SSW 11.5 mph - N/A   Scattered Clouds
8:55 AM 85.5 °F 94.2 °F 75.0 °F 71% 29.98 in 10.0 mi SSW 15.0 mph 19.6 mph N/A   Scattered Clouds
9:15 AM 87.1 °F 95.9 °F 74.3 °F 66% 29.98 in 10.0 mi SSW 17.3 mph 23.0 mph N/A   Clear
9:35 AM 88.3 °F 96.4 °F 73.2 °F 61% 29.98 in 10.0 mi SSW 18.4 mph 24.2 mph N/A   Scattered Clouds
9:55 AM 89.4 °F 97.8 °F 73.4 °F 59% 29.98 in 10.0 mi SSW 12.7 mph 20.7 mph N/A   Scattered Clouds
10:15 AM 89.4 °F 96.8 °F 72.5 °F 57% 29.98 in 10.0 mi SSW 16.1 mph 23.0 mph N/A   Scattered Clouds
10:35 AM 91.6 °F 98.8 °F 71.6 °F 52% 29.98 in 10.0 mi SW 15.0 mph 21.9 mph N/A   Clear
10:55 AM 92.3 °F 98.6 °F 70.9 °F 49% 29.98 in 10.0 mi SSW 17.3 mph 21.9 mph N/A   Clear
11:15 AM 92.7 °F 99.4 °F 70.7 °F 49% 29.99 in 10.0 mi SW 11.5 mph 19.6 mph N/A   Clear
11:35 AM 93.9 °F 100.3 °F 70.5 °F 46% 29.98 in 10.0 mi SSW 12.7 mph 18.4 mph N/A   Clear
11:55 AM 94.8 °F 100.9 °F 70.0 °F 44% 29.98 in 10.0 mi South 10.4 mph 16.1 mph N/A   Clear
12:15 PM 95.9 °F 101.3 °F 68.7 °F 41% 29.97 in 10.0 mi SSW 8.1 mph 20.7 mph N/A   Clear
12:35 PM 97.0 °F 102.2 °F 68.5 °F 39% 29.97 in 10.0 mi South 10.4 mph 21.9 mph N/A   Scattered Clouds
12:55 PM 97.5 °F 103.3 °F 68.5 °F 39% 29.95 in 10.0 mi SSW 10.4 mph 17.3 mph N/A   Clear
1:15 PM 99.1 °F 103.8 °F 66.7 °F 35% 29.95 in 10.0 mi South 9.2 mph 20.7 mph N/A   Clear
1:35 PM 100.0 °F 104.2 °F 66.0 °F 33% 29.94 in 10.0 mi South 13.8 mph 21.9 mph N/A   Clear
1:55 PM 100.6 °F 103.9 °F 65.3 °F 31% 29.93 in 10.0 mi South 8.1 mph 17.3 mph N/A   Clear
2:15 PM 100.4 °F 103.0 °F 64.2 °F 30% 29.92 in 10.0 mi SSE 5.8 mph - N/A   Clear
2:35 PM 100.9 °F 104.0 °F 64.4 °F 30% 29.92 in 10.0 mi South 8.1 mph 18.4 mph N/A   Clear
2:55 PM 102.0 °F 104.6 °F 63.5 °F 28% 29.91 in 10.0 mi South 10.4 mph 18.4 mph N/A   Clear
3:15 PM 102.0 °F 105.2 °F 64.0 °F 29% 29.90 in 10.0 mi SSW 13.8 mph 20.7 mph N/A   Clear
3:35 PM 103.5 °F 107.1 °F 64.4 °F 28% 29.89 in 10.0 mi South 15.0 mph 28.8 mph N/A   Clear
3:55 PM 103.1 °F 105.8 °F 63.3 °F 27% 29.89 in 10.0 mi SW 13.8 mph 18.4 mph N/A   Clear
4:15 PM 103.1 °F 106.5 °F 64.4 °F 28% 29.87 in 10.0 mi SE 11.5 mph 17.3 mph N/A   Clear
4:35 PM 102.7 °F 105.8 °F 64.2 °F 28% 29.87 in 10.0 mi SSW 11.5 mph - N/A   Clear
4:55 PM 102.7 °F 105.8 °F 63.9 °F 28% 29.87 in 10.0 mi South 13.8 mph 23.0 mph N/A   Clear
5:15 PM 102.2 °F 105.5 °F 64.2 °F 29% 29.86 in 10.0 mi South 16.1 mph 21.9 mph N/A   Clear
5:35 PM 102.2 °F 105.5 °F 64.4 °F 29% 29.86 in 10.0 mi SSE 13.8 mph 19.6 mph N/A   Clear
5:55 PM 101.5 °F 104.3 °F 63.9 °F 29% 29.85 in 10.0 mi South 15.0 mph 19.6 mph N/A   Clear
6:15 PM 100.8 °F 103.0 °F 63.3 °F 29% 29.85 in 10.0 mi South 16.1 mph - N/A   Clear
6:35 PM 100.2 °F 101.5 °F 62.1 °F 28% 29.85 in 10.0 mi South 12.7 mph 23.0 mph N/A   Clear
6:55 PM 98.8 °F 100.3 °F 62.8 °F 30% 29.85 in 10.0 mi SSE 17.3 mph 23.0 mph N/A   Clear
7:15 PM 97.7 °F 100.0 °F 63.9 °F 33% 29.85 in 10.0 mi South 12.7 mph 18.4 mph N/A   Clear
7:35 PM 96.8 °F 98.5 °F 63.1 °F 33% 29.86 in 10.0 mi SSE 13.8 mph 18.4 mph N/A   Clear
7:55 PM 94.6 °F 97.8 °F 66.0 °F 39% 29.86 in 10.0 mi South 15.0 mph 20.7 mph N/A   Clear
8:15 PM 93.4 °F 96.6 °F 66.2 °F 41% 29.87 in 10.0 mi SSE 11.5 mph - N/A   Clear
8:35 PM 92.3 °F 95.1 °F 65.8 °F 42% 29.87 in 10.0 mi SSE 11.5 mph - N/A   Clear
8:55 PM 90.9 °F 94.4 °F 67.5 °F 46% 29.88 in 10.0 mi SSE 10.4 mph 16.1 mph N/A   Clear
9:15 PM 90.1 °F 93.5 °F 67.5 °F 47% 29.89 in 10.0 mi South 10.4 mph 17.3 mph N/A   Clear
9:35 PM 89.4 °F 93.1 °F 68.0 °F 49% 29.90 in 10.0 mi South 10.4 mph 16.1 mph N/A   Clear
9:55 PM 88.7 °F 93.0 °F 68.9 °F 52% 29.91 in 10.0 mi South 8.1 mph 16.1 mph N/A   Clear
10:15 PM 87.6 °F 92.3 °F 69.6 °F 55% 29.92 in 10.0 mi South 10.4 mph 16.1 mph N/A   Clear
10:35 PM 86.9 °F 92.1 °F 70.3 °F 58% 29.93 in 10.0 mi SSE 9.2 mph - N/A   Clear
10:55 PM 85.8 °F 91.5 °F 71.4 °F 62% 29.93 in 10.0 mi SSE 8.1 mph - N/A   Clear
11:15 PM 85.3 °F 91.5 °F 72.3 °F 65% 29.94 in 10.0 mi South 8.1 mph - N/A   Clear
11:35 PM 84.7 °F 91.0 °F 72.7 °F 67% 29.94 in 10.0 mi South 6.9 mph - N/A   Clear
11:55 PM 84.2 °F 91.2 °F 73.8 °F 71% 29.94 in 10.0 mi South 9.2 mph - N/A   Clear